RH
41 42 40 37 35 37 40 42 42 44 69 68 77 72 78 77 73 66 67 64 64 66 70 71 72 78 75 73 74 82 79 80 81 88 90 92 94 97 96 96 95 96 93 93
44 34 39 42 35 34 36 46 48 64 57 70 75 78 78 71 69 66 63 60 57 58 64 65 68 71 76 72 74 78 79 81 82 86 85 87 89 92 95 96 96 96 93 94
47 42 32 35 51 47 52 68 59 59 58 74 73 73 74 73 70 69 62 60 59 59 63 65 68 70 72 76 77 80 81 82 83 86 86 87 87 91 93 95 95 97 97 96
40 44 42 37 56 50 58 57 69 78 74 71 73 77 75 72 67 63 57 58 63 65 70 74 76 77 80 80 83 84 84 85 86 88 89 89 90 91 92 94 95 96 96 97
42 43 41 44 41 45 62 64 58 65 62 62 57 55 65 59 57 61 66 66 70 71 75 79 78 81 82 81 83 85 84 86 86 88 90 91 92 92 92 94 94 94 92 92
47 45 59 48 46 44 50 72 57 57 58 58 64 80 72 71 68 72 71 72 73 74 76 79 83 85 87 86 89 88 88 87 88 90 91 91 91 93 94 94 93 90 90 91
51 50 50 45 44 45 57 60 60 63 69 64 72 82 78 76 76 73 74 77 80 82 84 86 88 89 91 92 92 88 89 89 90 91 94 94 94 95 95 95 95 95 94 94
64 65 48 52 48 46 56 67 59 66 70 77 80 76 74 77 81 81 83 84 83 90 91 91 91 94 94 95 90 92 92 92 92 92 90 87 95 95 96 96 97 96 96 96
53 56 69 69 64 69 56 56 64 70 72 71 71 73 80 86 83 85 89 90 89 94 95 92 92 94 96 93 94 94 94 87 83 84 89 93 97 97 98 98 98 95 97 96
69 67 71 65 63 60 62 62 65 64 66 71 83 84 84 82 85 87 89 91 92 94 95 95 93 93 95 95 93 88 84 82 80 81 84 82 85 94 93 97 97 96 96 95
80 75 74 63 67 67 66 62 65 70 73 78 79 83 83 84 88 90 93 93 94 98 98 96 93 89 85 85 80 90 90 89 88 82 82 81 79 79 88 89 89 91 95 93
79 69 82 72 73 66 64 70 71 72 77 76 80 83 84 87 91 94 97 97 98 96 90 80 82 84 82 76 88 96 96 94 91 89 89 91 92 88 91 97 98 99 99 94
64 68 84 70 68 66 70 73 70 71 74 80 81 81 85 90 94 97 97 95 96 95 87 85 83 82 78 82 92 97 98 95 92 97 96 96 96 97 92 79 93 99 100 99
68 66 70 65 66 66 68 68 73 74 75 79 84 86 85 91 94 95 95 95 94 95 82 84 86 86 83 87 94 95 96 97 98 98 98 97 96 93 92 94 94 86 98 100
67 68 66 66 70 72 68 72 75 76 79 84 85 83 82 87 89 92 92 92 91 90 92 85 88 89 84 88 93 96 97 97 96 94 94 96 96 94 93 93 93 92 94 98
78 72 69 70 74 72 72 72 71 78 81 86 89 84 81 86 87 86 87 89 91 92 93 94 95 91 88 90 93 95 95 92 94 96 97 96 93 95 97 95 92 93 95 93
71 69 69 69 70 69 66 66 66 70 79 86 90 86 83 81 82 82 83 85 88 87 88 94 96 93 91 92 94 96 95 94 89 95 96 95 95 97 97 96 96 96 96 96
76 72 67 61 63 61 63 64 67 69 75 80 89 87 84 73 79 81 83 86 84 82 81 91 94 86 88 91 85 93 94 93 91 95 96 96 97 94 94 91 95 96 95 95
92 81 75 70 65 64 66 64 65 67 74 82 91 90 86 80 81 83 85 84 84 87 83 90 85 85 88 89 81 92 93 87 84 88 91 94 95 94 94 95 94 93 93 95
92 80 80 81 71 73 72 71 68 66 75 83 88 90 92 89 85 83 86 85 87 92 87 90 90 89 89 93 78 91 91 91 90 87 88 91 90 90 94 96 95 95 96 97
90 85 77 79 74 80 81 78 76 75 79 83 84 88 85 88 89 88 84 82 78 84 88 86 90 90 90 83 84 83 81 87 89 89 90 89 88 88 92 94 97 97 96 96
86 81 84 86 85 85 85 87 85 81 81 80 83 80 84 86 89 90 87 80 76 82 85 89 92 86 88 81 86 80 74 80 84 85 88 90 89 90 91 94 96 97 98 97
88 85 86 85 86 87 88 87 87 88 84 82 78 77 78 77 84 90 88 82 86 87 79 84 87 87 90 92 89 85 82 81 82 84 86 90 90 91 93 92 95 97 98 98
89 89 90 91 91 90 90 89 92 92 93 92 81 64 67 70 76 80 85 88 84 80 77 80 83 88 88 91 91 91 89 83 84 86 86 96 90 90 91 90 91 94 97 97
90 91 91 89 91 94 90 87 93 93 89 87 86 84 72 74 61 57 61 59 82 88 77 82 82 86 78 81 83 86 87 89 91 88 86 87 87 90 90 90 94 94 91 92
90 95 96 92 92 90 82 84 78 72 71 68 66 58 52 56 51 52 56 66 78 84 73 69 71 74 70 70 70 73 73 67 71 74 87 87 91 90 90 92 92 94 94 93
96 97 97 93 86 80 74 67 60 57 62 59 51 53 50 50 51 51 61 59 77 73 68 69 66 74 74 74 66 64 65 66 75 71 69 69 73 77 81 88 91 89 88 92
Wind_Speed
3 3 1 3 3 8 6 4 5 5 13 15 17 13 11 10 7 6 5 6 4 3 2 1 2 1 0 1 3 4 5 4 2 2 4 4 4 5 6 6 7 8 9 10
2 6 4 1 3 3 4 3 5 1 6 4 11 7 8 11 8 6 6 5 5 4 2 2 3 3 4 4 3 0 2 4 5 5 5 5 5 5 5 5 7 8 9 10
2 2 3 2 3 5 1 2 4 5 4 8 12 10 11 8 6 6 5 4 3 4 1 3 1 1 2 5 5 5 5 5 5 4 5 5 6 6 6 6 4 6 7 8
2 6 1 6 1 3 7 2 4 2 4 6 10 6 8 6 6 6 4 4 3 0 2 0 3 5 4 4 4 5 5 6 5 4 5 6 6 7 7 5 6 6 5 7
4 4 3 4 5 5 5 3 3 6 11 14 14 13 8 4 4 5 5 3 2 1 3 5 6 6 6 6 5 5 5 5 5 5 6 6 7 8 8 7 8 7 7 8
5 5 9 8 5 4 4 5 5 9 11 13 4 6 3 3 4 5 5 4 4 4 3 5 6 6 6 6 6 7 6 7 7 7 9 9 9 9 6 6 8 8 10 9
2 4 6 4 3 2 6 7 8 7 4 4 5 4 6 5 5 4 3 4 4 5 4 5 5 5 6 5 7 7 7 8 8 8 8 9 10 8 8 8 9 9 10 10
4 2 7 4 4 8 5 5 11 5 4 9 9 8 7 6 5 5 5 5 5 4 5 5 5 5 7 7 8 8 8 10 11 10 8 8 9 9 9 9 9 10 10 9
7 6 3 4 3 1 5 15 7 8 6 11 9 6 6 4 4 3 3 4 4 5 6 5 6 5 9 9 9 9 9 13 14 14 11 10 10 10 7 8 8 9 8 8
3 4 5 4 3 5 3 8 8 11 10 7 9 6 6 4 2 3 4 4 4 6 7 8 8 8 8 10 9 9 12 12 11 12 12 11 9 8 9 9 9 9 9 9
1 4 2 3 2 6 9 11 11 7 7 9 10 6 4 3 1 2 3 3 4 4 5 7 9 8 8 9 9 10 11 10 11 10 11 10 11 11 9 10 10 9 9 8
8 8 4 6 5 7 12 10 11 14 6 5 6 7 4 3 2 3 4 5 5 5 6 8 8 9 8 9 7 9 10 9 8 9 9 9 9 10 12 16 16 17 19 14
4 9 5 7 7 4 8 10 7 10 10 9 5 6 4 2 2 3 4 4 4 6 7 8 8 8 9 10 10 10 10 11 9 9 8 8 8 7 9 10 13 15 17 18
4 9 5 5 7 9 10 8 8 7 6 6 6 5 4 4 2 2 2 4 4 4 7 8 8 9 11 11 11 11 11 13 8 8 8 8 8 8 8 9 11 11 10 12
6 3 7 9 9 8 10 11 11 9 6 6 4 6 5 5 4 2 3 4 4 4 5 7 8 10 11 11 11 11 9 8 9 8 8 9 9 9 8 9 10 11 9 9
6 9 8 11 11 11 12 9 11 7 6 5 6 6 5 5 4 2 1 3 4 5 6 6 7 10 11 12 12 9 9 15 11 8 8 8 8 8 8 8 9 9 9 10
8 6 7 6 10 9 12 10 11 11 8 8 8 7 6 5 4 2 0 2 3 3 4 4 7 8 9 10 10 8 8 9 16 8 8 8 8 8 8 8 9 9 11 11
8 5 6 5 10 8 6 7 7 7 8 8 8 7 6 6 6 5 2 2 3 4 3 4 5 7 8 10 9 7 7 8 9 9 8 9 9 8 8 9 9 10 11 11
11 7 3 5 6 7 7 7 8 8 7 8 8 9 7 6 5 4 3 2 3 4 4 5 12 9 8 10 11 6 6 8 8 9 9 11 9 9 9 9 10 10 11 11
6 5 5 2 3 3 6 5 5 7 6 7 6 5 7 7 6 5 4 4 5 5 4 6 6 6 6 9 13 6 7 8 8 8 8 9 9 10 9 11 11 12 12 11
9 9 7 2 4 4 7 5 6 6 7 7 9 8 9 6 5 5 4 4 6 5 5 7 4 3 3 7 7 6 7 7 7 8 8 9 10 11 11 11 11 11 12 12
4 4 3 6 4 0 2 4 4 4 5 7 6 5 5 6 6 6 5 6 3 6 3 3 3 5 5 8 4 5 6 6 6 7 8 8 9 9 10 10 11 10 10 11
6 3 4 4 2 2 1 1 3 5 5 6 6 6 6 5 3 4 5 5 5 5 4 3 5 7 5 3 3 4 5 6 6 6 7 7 8 8 9 10 9 10 10 10
2 3 3 2 2 2 3 2 4 5 5 4 4 4 2 3 3 3 4 4 7 7 5 3 4 6 3 1 3 3 4 5 4 5 6 6 6 7 8 9 9 8 8 9
4 3 2 2 1 2 3 2 0 1 3 5 5 5 3 4 3 2 2 3 7 6 4 4 5 7 2 2 3 4 4 4 4 5 5 6 6 7 7 8 7 8 9 9
2 2 1 1 1 2 3 1 2 2 3 4 2 2 2 2 3 3 3 5 4 4 3 2 2 3 3 3 4 4 4 5 5 6 5 5 5 5 6 7 7 7 7 7
2 1 2 1 1 2 1 2 3 2 1 1 2 3 1 2 3 3 3 3 2 2 2 2 2 3 4 4 5 4 3 3 4 5 5 5 5 5 5 5 5 5 6 7
Wind_Direction
219 261 249 132 160 162 187 181 162 222 185 206 194 181 171 165 165 158 176 151 147 168 195 161 101 99 345 300 354 4 19 12 5 334 333 316 282 269 264 251 244 240 234 229
79 31 0 65 328 219 206 149 285 79 248 272 151 115 144 167 160 166 183 160 155 151 88 336 297 313 326 324 322 12 334 300 304 316 322 304 297 301 296 264 246 244 243 242
217 55 22 37 226 278 328 73 146 200 249 142 143 154 158 142 150 169 158 148 116 60 54 277 293 292 334 336 339 339 312 297 282 275 278 283 296 299 283 281 279 247 242 242
147 47 299 249 108 146 125 51 322 90 102 131 121 93 107 136 157 148 130 91 76 148 200 166 41 25 339 357 2 339 327 323 323 308 286 285 280 274 279 275 269 276 257 235
124 163 278 289 232 189 184 297 320 129 116 118 122 92 44 45 89 108 104 121 137 70 39 15 6 342 345 339 340 328 318 306 299 298 289 276 265 261 265 271 278 272 264 262
137 195 198 234 184 131 117 293 131 139 133 136 141 109 180 107 98 97 92 76 49 23 18 6 340 338 337 323 329 317 310 307 300 294 289 286 278 275 266 256 263 270 278 269
157 222 287 227 191 142 122 236 142 144 135 116 101 166 155 127 78 74 73 40 30 13 346 314 317 330 314 307 300 296 303 302 295 285 276 279 277 268 262 266 266 263 264 264
109 125 265 151 97 176 195 62 137 125 113 101 116 112 109 104 81 49 26 2 350 338 326 318 327 333 317 308 303 310 316 316 310 300 292 288 276 276 270 268 266 266 265 265
176 215 274 285 285 323 168 135 145 123 126 127 116 106 107 100 58 25 5 339 348 348 326 330 335 331 318 312 316 317 319 319 314 309 300 294 290 286 275 263 261 264 259 259
64 330 335 354 66 88 103 108 111 121 127 120 119 122 120 114 60 26 2 344 331 334 330 326 332 327 307 306 309 322 314 312 311 306 294 289 288 283 274 269 264 260 259 261
25 304 329 337 101 119 98 107 105 93 118 130 123 125 123 122 63 345 335 343 347 327 314 317 322 317 334 334 332 316 305 301 296 292 295 293 287 281 273 259 252 258 251 250
210 192 159 192 175 136 129 130 130 121 104 97 117 134 129 112 28 7 356 350 344 327 323 332 327 331 317 316 307 299 298 294 289 288 283 280 281 281 255 247 257 249 253 250
220 172 193 158 146 142 130 137 132 130 133 134 127 123 119 110 59 23 9 346 337 321 334 338 323 323 325 326 314 305 302 298 296 287 283 283 282 285 292 290 265 256 256 256
178 120 88 154 164 151 130 124 116 112 109 118 124 114 113 112 106 79 12 328 329 337 355 346 333 323 328 322 314 310 304 296 296 294 287 279 281 282 286 286 294 293 268 240
134 60 124 110 107 112 125 130 125 127 128 117 123 132 133 123 103 45 355 352 340 336 341 345 337 334 331 326 320 322 326 326 326 319 325 326 318 309 300 289 286 288 290 271
84 93 109 129 141 142 139 139 140 153 154 148 155 163 153 137 132 116 30 18 33 359 335 334 329 328 330 335 340 338 335 332 337 329 327 328 326 320 313 309 307 301 296 290
100 113 106 122 148 154 166 163 164 174 170 165 178 164 153 152 144 149 358 14 15 345 314 313 315 318 340 336 342 344 337 336 343 339 340 335 336 330 331 333 328 321 307 309
349 33 40 180 162 158 158 167 172 167 176 179 162 163 169 170 174 199 232 338 349 344 330 324 315 350 345 343 351 338 343 345 346 346 343 347 346 341 337 332 327 321 317 311
354 347 3 262 190 174 168 173 179 178 157 163 171 183 183 188 193 202 189 273 297 318 300 329 342 351 344 341 351 342 344 350 353 355 352 346 353 348 346 342 337 335 334 340
293 315 7 248 21 158 184 203 184 176 171 161 178 173 187 207 204 198 196 242 240 227 280 297 317 324 336 334 350 340 338 345 349 352 352 352 355 346 345 349 348 352 350 351
335 322 335 304 185 168 245 181 165 178 185 181 183 195 200 215 194 200 202 241 257 215 232 279 291 308 321 353 357 346 349 355 356 345 350 355 353 357 356 355 354 357 356 351
285 240 331 328 33 101 228 224 199 202 192 191 202 195 190 230 222 222 226 221 253 204 242 272 278 295 318 359 357 344 353 2 0 355 356 356 358 354 355 357 354 351 354 350
273 303 319 330 307 296 341 274 226 219 217 200 207 203 193 225 199 193 262 239 231 231 221 233 264 274 299 351 335 331 339 354 358 355 354 353 352 349 352 359 355 349 352 353
276 269 273 294 290 321 299 283 271 250 223 198 205 199 194 261 263 225 263 257 236 229 237 222 250 245 252 330 311 314 322 335 339 340 349 349 351 351 358 2 2 357 354 356
267 268 252 304 303 274 263 270 6 80 139 148 135 72 308 271 203 238 279 293 275 227 216 224 249 229 213 265 288 297 310 310 316 336 347 350 352 353 359 4 357 353 2 5
269 245 247 236 236 240 250 162 151 172 195 126 78 118 206 227 22 330 317 309 274 195 184 198 222 212 212 236 256 271 296 313 337 334 326 336 347 359 359 2 0 354 352 2
280 159 115 73 333 7 106 154 136 166 141 110 165 199 130 54 334 323 355 348 306 183 182 221 243 236 238 245 257 260 261 283 294 304 321 341 348 350 354 353 355 349 355 3